Torna al catalogo

THOR ABLESTAR DEB

AttivoLEO
NORAD 119·DEBRIS·🇺🇸 United States

Lanciato Jun 29, 1961 da Cape Canaveral Space Force Station

Loading…

Prossimi Passaggi (prossime 24 ore)

TLE

AggiornatoSource: Space-Track

Epoca: Sep 14, 2026, 10:17 UTC

1 00119U 61015D   26257.42877924  .00000340  00000-0  16377-3 0  9993
2 00119  66.7267 156.3381 0102433 198.6821 161.0506 14.27424170371059

Traccia THOR ABLESTAR DEB in tempo reale con AllMySat

Download on the App Store